Location: ??????????
(54.8537°N, 38.8755°E)
Time: 22:11:54
(UTC+00:00)

Transit 2A Rocket - Pass Details

Date: 14 September 2024
Orbit: 582 x 908 km, 66.7° (Epoch: 09 October)

Event Time Altitude Azimuth Distance (km) Brightness Sun altitude
Exits shadow 23:38:26 28° 290° (WNW) 1,654 6.5 -25.5°
Maximum altitude 23:40:48 38° 334° (NNW) 1,369 6.4 -25.3°
Drops below altitude 10° 23:46:24 10° 41° (NE) 2,575 8.8 -24.8°
Sets 23:49:05 0° 50° (NE) 3,489 9.8 -24.6°
